Hourly Data Report for September 25, 2017

All times are specified in Local Standard Time (LST). Add 1 hour to adjust for Daylight Saving Time where and when it is observed.

ST. PETERS
PRINCE EDWARD ISLAND

46°27'01.000" N
62°34'33.000" W
29.70 m
8300562
71310
ZSP

Download Data

Hourly Data (September 2017)
Hourly Data Report for September 25, 2017
Temp Definition
°C
Dew Point Temp Definition
°C
Rel Hum Definition
%
Wind Dir Definition
10's deg

Wind Spd Definition
km/h
Visibility Definition
km
Stn Press Definition
kPa
Hmdx Definition


Wind Chill Definition


Weather Definition


TIME
00:00 15.6 14.3 92 31 10   101.32     LegendNANA
01:00 15.4 13.8 90 32 11   101.41     LegendNANA
02:00 15.2 13.2 87 34 14   101.43     LegendNANA
03:00 15.0 12.7 86 35 13   101.45     LegendNANA
04:00 14.8 12.7 87 35 11   101.48     LegendNANA
05:00 14.4 11.8 84 1 6   101.53     LegendNANA
06:00 14.3 11.5 84 2 6   101.57     LegendNANA
07:00 14.9 12.0 83 2 7   101.61     LegendNANA
08:00 16.1 12.6 80 3 9   101.66     LegendNANA
09:00 16.5 12.9 79 4 10   101.67     LegendNANA
10:00 17.6 12.9 74 3 8   101.68     LegendNANA
11:00 17.8 13.0 73 2 10   101.67     LegendNANA
12:00 18.1 13.6 75 4 9   101.64     LegendNANA
13:00 18.6 13.1 71 2 11   101.60     LegendNANA
14:00 19.2 13.8 71 3 10   101.53     LegendNANA
15:00 19.6 13.8 69 2 9   101.48     LegendNANA
16:00 21.2 14.7 67 17 14   101.41 25   LegendNANA
17:00 19.7 14.1 70 16 11   101.40     LegendNANA
18:00 17.9 13.5 75 16 12   101.34     LegendNANA
19:00 16.6 13.4 81 16 14   101.32     LegendNANA
20:00 16.6 13.7 83 16 17   101.29     LegendNANA
21:00 16.7 14.3 86 16 14   101.23     LegendNANA
22:00 17.6 15.3 86 19 17   101.17     LegendNANA
23:00 17.4 15.6 90 18 17   101.11     LegendNANA

Notes on Data Quality.

Legend

  • E = Estimated
  • M = Missing
  • NA = Not Available
  • ‡ = Partner data that is not subject to review by the National Climate Archives
Date modified: